Regional Weather Roundup
Issued by NWS

Home | Current Version | Previous Version | Graphics & Text | Print | Product List | Glossary On
Versions: 1 2 3 4 5 6 7 8 9 10 11 12 13 14 15 16 17 18 19 20 21 22 23 24 25 26 27 28 29 30 31 32 33 34 35 36 37 38 39 40 41 42 43 44 45 46 47 48 49 50
000
ASUS45 KBOU 271507
RWRCO

WEATHER ROUNDUP FOR COLORADO
NATIONAL WEATHER SERVICE DENVER/BOULDER CO
800 AM MST MON FEB 27 2017

NOTE: "FAIR" INDICATES FEW OR NO CLOUDS BELOW 12000 FEET WITH NO
SIGNIFICANT WEATHER AND/OR OBSTRUCTIONS TO VISIBILITY.

COZ001>005-013-030-031-271600-
...NORTHWEST COLORADO...

CITY           SKY/WX    TMP DP  RH WIND       PRES   REMARKS
CRAIG          CLOUDY    34  19  54 S14       29.61F WCI  25
HAYDEN         FAIR      23  12  63 E8        29.62S WCI  14
MEEKER         PTSUNNY   32  21  64 SE8       29.64R WCI  25
MOUNT WERNER   NOT AVBL
STEAMBOAT SPGS CLOUDY    17  10  73 CALM      29.64R
WALDEN         NOT AVBL
$$

COZ006>008-011-271600-
...WEST CENTRAL VALLEYS...

CITY           SKY/WX    TMP DP  RH WIND       PRES   REMARKS
GRAND JUNCTION PTSUNNY   40  25  55 S10G22    29.70R
MONTROSE       FAIR      33  11  39 E17       29.75F WCI  22
EAGLE          PTSUNNY   25  10  54 E12       29.69F WCI  14
RIFLE          CLOUDY    38  23  55 S10       29.68R
DELTA          PTSUNNY   40  23  50 W5        29.75R
NUCLA          CLOUDY    36  25  64 S5        29.81R
$$

COZ017>023-064>068-271600-
...SOUTHWEST COLORADO...

CITY           SKY/WX    TMP DP  RH WIND       PRES   REMARKS
DURANGO        FLURRIES  27  23  85 E5        29.88R WCI  22
CORTEZ         CLOUDY    36  24  62 SW6       29.84R
PAGOSA SPRINGS LGT SNOW  25  24  98 CALM      29.88R
TELLURIDE      FAIR      25  12  58 SE25G32   29.75S WCI  10
WOLF CREEK PAS HVY SNOW  10  10 100 S29G43    29.79S VSB 1/4 WCI -11
$$

COZ009-010-012-014-032>034-037-058>063-271600-
...CENTRAL COLORADO...

CITY           SKY/WX    TMP DP  RH WIND       PRES   REMARKS
ASPEN          CLOUDY    28  10  46 S8        29.66F WCI  20
BUENA VISTA    FAIR      26   8  48 CALM      29.74S
COPPER MTN     FAIR      14   3  62 MISG      29.63S
BERTHOUD PASS  FAIR       9  -4  56 W21G55    29.59R WCI -11
COTTONWOOD PAS PTSUNNY   25   5  42 W8G18     29.71S WCI  16
GUNNISON       FAIR       5  -3  69 E5        29.83R WCI  -4
KREMMLING      CLOUDY    21  10  63 CALM      29.69F
LEADVILLE      FAIR       7  -2  66 W3        29.67R
MONARCH PASS     N/A      9   5  85 SW31      29.79R WCI -14
SALIDA         FAIR      30  13  49 S10       29.82F WCI  21
SUNLIGHT       NOT AVBL
WILKERSON PASS FAIR      10   5  79 SW16G29   29.67R WCI  -7
$$

COZ069>075-271600-
...SAN LUIS VALLEY/SANGRE DE CRISTO MOUNTAINS...

CITY           SKY/WX    TMP DP  RH WIND       PRES   REMARKS
ALAMOSA        FAIR      30  19  63 S13       29.81R WCI  20
LA VETA PASS   LGT SNOW  21  16  79 S23G43    29.77R VSB 1   WCI   5
SAGUACHE       FAIR      19   5  53 NW10      29.82R WCI   8
$$

COZ035-036-038>040-271600-
...NORTHERN COLORADO FRONT RANGE...

CITY           SKY/WX    TMP DP  RH WIND       PRES   REMARKS
DENVER INTL AP FAIR      30  12  47 S12       29.66S WCI  20
DMNS CITY PARK   N/A     28   6  39 MISG      29.66S
AURORA         MOSUNNY   33   9  36 S12       29.66F WCI  24
FRONT RANGE AP NOT AVBL
ERIE MUNI ARPT FAIR      23  16  77 CALM      29.66F
BOULDER MUN AP FAIR      27  14  59 CALM      29.65S
CENTENNIAL     FAIR      35   9  33 S14       29.65S WCI  26
BROOMFIELD     MOSUNNY   25  10  54 S5        29.66S WCI  19
FORT COLLINS   FAIR      20  15  81 NE6       29.68F WCI  12
LONGMONT       NOT AVBL
$$

COZ041-046-047-076>085-087-088-271600-
...PIKES PEAK/PALMER DIVIDE AND SOUTHERN FOOTHILLS...

CITY           SKY/WX    TMP DP  RH WIND       PRES   REMARKS
COLO. SPRINGS  FAIR      28   1  31 E7        29.71R WCI  21
A. F. ACADEMY  FAIR      29   1  29 S6        29.69R WCI  23
SCHRIEVER AFB  FAIR      27   1  33 SE9       29.72R WCI  18
ELLICOTT       NOT AVBL
FALCON         FAIR      30   1  29 E3        29.71R
FORT CARSON    FAIR      25   2  37 E3        29.71R
LIMON          FAIR      20  11  68 CALM      29.73S
MONUMENT HILL  FAIR      32   7  34 SE7       29.69S WCI  26
TRINIDAD       FAIR      26   8  46 NW5       29.77R WCI  20
$$

COZ042>045-048>051-090-091-271600-
...NORTHEAST COLORADO...

CITY           SKY/WX    TMP DP  RH WIND       PRES   REMARKS
GREELEY ARPT   FAIR      18  14  84 NW3       29.71
AKRON          FAIR      31  11  43 S9        29.70S WCI  23
BURLINGTON     FAIR      26  19  74 W9        29.76R WCI  17
WRAY           NOT AVBL
STERLING       FAIR      19  16  86 CALM      29.72R
HOLYOKE        FAIR      28  21  74 SW10      29.75S WCI  19
FORT MORGAN    FAIR      20  15  80 W6        29.71S WCI  13
$$

COZ086-089-092>099-271600-
...SOUTHEAST COLORADO...

CITY           SKY/WX    TMP DP  RH WIND       PRES   REMARKS
PUEBLO         FAIR      22   4  46 VRB3      29.76R
LA JUNTA       FAIR      23   9  55 N7        29.78R WCI  15
LAMAR          FAIR      23  13  65 NW5       29.78R WCI  17
SPRINGFIELD      N/A     34  15  46 W3        29.77R
$$



USA.gov is the U.S. government's official web portal to all federal, state and local government web resources and services.